Location: ??
(34.7252°N, 135.5457°E)
Time: 08:07:11
(UTC+00:00)

Meteor 1-19 Rocket - Pass Details

Date: 24 September 2020
Orbit: 810 x 925 km, 81.2° (Epoch: 29 October)

Event Time Altitude Azimuth Distance (km) Brightness Sun altitude
Rises 19:44:09 0° 187° (S) 3,325 7.1 -13.9°
Reaches altitude 10° 19:46:31 10° 188° (S) 2,405 6.4 -13.4°
Maximum altitude 19:51:57 88° 274° (W) 838 4.2 -12.3°
Drops below altitude 10° 19:57:35 10° 8° (N) 2,482 6.8 -11.2°
Sets 20:00:03 0° 9° (N) 3,439 7.6 -10.7°
